Regional Weather Roundup
Issued by NWS

Home | Current Version | Previous Version | Text Only | Print | Product List | Glossary Off
Versions: 1 2 3 4 5 6 7 8 9 10 11 12 13 14 15 16 17 18 19 20 21 22 23 24 25 26 27 28 29 30 31 32 33 34 35 36 37 38 39 40 41 42 43 44 45 46 47 48 49 50

000
ASUS44 KMEG 110010
RWRTN
TENNESSEE HOURLY STATE WEATHER ROUNDUP
NATIONAL WEATHER SERVICE MEMPHIS TN
600 PM CST SAT DEC 10 2016

TNZ002-004-019-021-049-052-054-088>092-110100-
WEST TENNESSEE

CITY           SKY/WX    TMP DP  RH WIND       PRES   REMARKS
MEMPHIS INTL   PTCLDY    42  14  32 SE5       30.39F
NWS MEMPHIS      N/A     36 N/A N/A MISG        N/A
JACKSON        CLEAR     32  18  56 SE3       30.41F
DYERSBURG      PTCLDY    36  18  48 SE5       30.41R WCI  32
UNION CITY     CLEAR     34  16  47 CALM      30.39F
PARIS          CLEAR     27  14  59 CALM      30.42S
HUNTINGDON     CLEAR     30  18  59 NE3       30.42S
LEXINGTON      CLEAR     30  14  51 CALM      30.41F
$$

TNZ008-025-027-028-033-062-065-066-110100-
NORTH MIDDLE TENNESSEE

CITY           SKY/WX    TMP DP  RH WIND       PRES   REMARKS
NASHVILLE      PTCLDY    36  12  37 CALM      30.45F
PORTLAND       CLEAR     32  14  47 CALM      30.45R
CLARKSVILLE    PTCLDY    30  15  53 NE3       30.44F
SMYRNA         CLEAR     29  19  66 CALM      30.46F
GALLATIN       CLEAR     30  18  59 CALM      30.48S
CROSSVILLE     CLEAR     30  12  47 CALM      30.40F
$$

TNZ061-075-076-078-094-096-097-110100-
SOUTH MIDDLE TENNESSEE

CITY           SKY/WX    TMP DP  RH WIND       PRES   REMARKS
FAYETTEVILLE   CLEAR     34  18  51 CALM      30.42R
TULLAHOMA      CLEAR     32  14  47 CALM      30.41F
WINCHESTER     CLEAR     28  18  64 CALM      30.43S
MCMINNVILLE    CLEAR     28  18  64 CALM        N/A
COLUMBIA       CLEAR     32  18  55 SE3       30.41F
SHELBYVILLE    CLEAR     30  19  64 CALM      30.44F
$$

TNZ017-018-042-046-047-110100-
NORTHEAST TENNESSEE

CITY           SKY/WX    TMP DP  RH WIND       PRES   REMARKS
TRI CITIES     PTCLDY    27  15  61 N3        30.44R
ELIZABETHTON   CLEAR     25  18  74 CALM      30.43S
$$

TNZ012-013-036-069-073-074-110100-
CENTRAL EAST TENNESSEE

CITY           SKY/WX    TMP DP  RH WIND       PRES   REMARKS
KNOXVILLE      CLEAR     33  13  43 N6        30.45R WCI  28
OAK RIDGE      CLEAR     31  16  54 CALM      30.47R
DOWNTOWN KNOXV CLEAR     32  18  55 CALM      30.47R
GATLINBURG     CLEAR     28  14  54 CALM      30.45R
MORRISTOWN     CLEAR     32  12  43 CALM      30.44R
JACKSBORO      CLEAR     28  19  69 CALM      30.48S
$$

TNZ083-085-099-110100-
SOUTHEAST TENNESSEE

CITY           SKY/WX    TMP DP  RH WIND       PRES   REMARKS
CHATTANOOGA    CLEAR     34  17  50 N5        30.45S WCI  30
$$

SKY/WX REPORTED AS FAIR MEANS FEW OR NO CLOUDS BELOW
12 THOUSAND FEET.





USA.gov is the U.S. government's official web portal to all federal, state and local government web resources and services.